NWS457 UUEE-UWKD

Flight info

Callsign NWS457
Flight time 1h 10m
Altitude 37000
Route KOGOM3J KOGOM L94 EKPIR M864 INKEB L94 UNORO T788 KOROM KOROM1T
Aircraft A321/M-SDE3FGHIRWY/LB1

Departure

Time 2026-05-04 13:41
Airport Sheremetyevo International Airport (UUEE)

Arrival

Time 2026-05-04 14:51
Airport Kazan International Airport (UWKD)
Time Latitude Longitude Altitude Speed Heading
2026-05-04 13:04 55.97840 37.41925 639 ft 0 kts 279°
2026-05-04 13:28 55.97840 37.41926 639 ft 2 kts 279°
2026-05-04 13:28 55.97835 37.41970 641 ft 4 kts 286°
2026-05-04 13:29 55.97827 37.42015 641 ft 4 kts 292°
2026-05-04 13:29 55.97827 37.42016 641 ft 0 kts 292°
2026-05-04 13:29 55.97823 37.42033 641 ft 0 kts 295°
2026-05-04 13:30 55.97818 37.42051 643 ft 4 kts 297°
2026-05-04 13:30 55.97804 37.42093 645 ft 4 kts 303°
2026-05-04 13:30 55.97789 37.42133 647 ft 4 kts 303°
2026-05-04 13:30 55.97777 37.42174 642 ft 4 kts 280°
2026-05-04 13:31 55.97776 37.42192 645 ft 0 kts 255°
2026-05-04 13:33 55.97768 37.42155 643 ft 9 kts 243°
2026-05-04 13:33 55.97701 37.42139 639 ft 12 kts 144°
2026-05-04 13:33 55.97698 37.42277 640 ft 12 kts 77°
2026-05-04 13:34 55.97722 37.42434 647 ft 14 kts 75°
2026-05-04 13:34 55.97744 37.42580 639 ft 6 kts 75°
2026-05-04 13:34 55.97754 37.42647 642 ft 4 kts 75°
2026-05-04 13:34 55.97755 37.42656 641 ft 0 kts 75°
2026-05-04 13:35 55.97762 37.42699 644 ft 9 kts 75°
2026-05-04 13:35 55.97763 37.42749 642 ft 0 kts 107°
2026-05-04 13:36 55.97762 37.42751 642 ft 1 kts 107°
2026-05-04 13:37 55.97742 37.42784 643 ft 9 kts 156°
2026-05-04 13:37 55.97723 37.42798 642 ft 0 kts 160°
2026-05-04 13:38 55.97719 37.42800 642 ft 2 kts 161°
2026-05-04 13:38 55.97700 37.42811 641 ft 5 kts 163°
2026-05-04 13:38 55.97642 37.42835 640 ft 12 kts 175°
2026-05-04 13:39 55.97591 37.42738 640 ft 8 kts 253°
2026-05-04 13:39 55.97590 37.42734 640 ft 0 kts 253°
2026-05-04 13:40 55.97590 37.42732 640 ft 1 kts 253°
2026-05-04 13:40 55.97535 37.42378 640 ft 69 kts 255°
2026-05-04 13:40 55.97347 37.41127 642 ft 137 kts 255°
2026-05-04 13:40 55.97057 37.39189 758 ft 178 kts 255°
2026-05-04 13:41 55.96639 37.37127 1537 ft 178 kts 246°
2026-05-04 13:41 55.95979 37.35209 2421 ft 182 kts 238°
2026-05-04 13:41 55.95262 37.33359 3268 ft 180 kts 237°
2026-05-04 13:42 55.93797 37.29778 4728 ft 177 kts 237°
2026-05-04 13:42 55.93052 37.27935 5171 ft 192 kts 237°
2026-05-04 13:42 55.92653 37.26939 5343 ft 201 kts 237°
2026-05-04 13:42 55.91751 37.24542 5322 ft 235 kts 238°
2026-05-04 13:43 55.90833 37.22194 6053 ft 232 kts 238°
2026-05-04 13:43 55.89817 37.20004 6774 ft 233 kts 221°
2026-05-04 13:43 55.88246 37.19028 7329 ft 256 kts 185°
2026-05-04 13:43 55.86454 37.19909 7757 ft 282 kts 152°
2026-05-04 13:44 55.84865 37.22029 8460 ft 290 kts 139°
2026-05-04 13:44 55.83742 37.25017 9168 ft 297 kts 107°
2026-05-04 13:44 55.83634 37.28661 9824 ft 301 kts 74°
2026-05-04 13:44 55.84561 37.31977 10348 ft 302 kts 49°
2026-05-04 13:45 55.85880 37.34921 11004 ft 306 kts 46°
2026-05-04 13:45 55.87280 37.37808 11683 ft 309 kts 45°
2026-05-04 13:45 55.88705 37.40706 12415 ft 313 kts 45°
2026-05-04 13:45 55.90135 37.43656 13139 ft 317 kts 46°
2026-05-04 13:46 55.91564 37.46674 13817 ft 321 kts 48°
2026-05-04 13:46 55.92745 37.50091 14388 ft 328 kts 64°
2026-05-04 13:46 55.93390 37.54022 14996 ft 334 kts 81°
2026-05-04 13:46 55.93427 37.58176 15613 ft 338 kts 97°
2026-05-04 13:47 55.92981 37.62306 16219 ft 341 kts 102°
2026-05-04 13:47 55.92506 37.66463 16829 ft 344 kts 102°
2026-05-04 13:47 55.92037 37.70655 17449 ft 346 kts 101°
2026-05-04 13:47 55.91366 37.74787 18038 ft 348 kts 113°
2026-05-04 13:48 55.90276 37.78641 18579 ft 350 kts 120°
2026-05-04 13:48 55.89088 37.82449 19102 ft 353 kts 120°
2026-05-04 13:48 55.87891 37.86280 19623 ft 355 kts 120°
2026-05-04 13:48 55.86687 37.90132 20147 ft 357 kts 120°
2026-05-04 13:49 55.85469 37.94012 20662 ft 360 kts 120°
2026-05-04 13:49 55.84244 37.97911 21174 ft 362 kts 120°
2026-05-04 13:49 55.83012 38.01841 21680 ft 365 kts 120°
2026-05-04 13:49 55.81774 38.05796 22196 ft 367 kts 120°
2026-05-04 13:50 55.80625 38.09874 22688 ft 371 kts 112°
2026-05-04 13:50 55.79912 38.14290 23145 ft 375 kts 100°
2026-05-04 13:50 55.79700 38.18977 23285 ft 387 kts 87°
2026-05-04 13:50 55.79818 38.23828 23467 ft 397 kts 86°
2026-05-04 13:51 55.79934 38.28762 23795 ft 402 kts 87°
2026-05-04 13:51 55.80049 38.33745 24177 ft 404 kts 86°
2026-05-04 13:51 55.80196 38.38743 24566 ft 406 kts 82°
2026-05-04 13:51 55.80711 38.43681 24948 ft 406 kts 72°
2026-05-04 13:52 55.82439 38.53286 25716 ft 410 kts 70°
2026-05-04 13:52 55.83309 38.58119 26107 ft 412 kts 70°
2026-05-04 13:52 55.84180 38.62989 26495 ft 413 kts 70°
2026-05-04 13:53 55.85049 38.67874 26885 ft 415 kts 70°
2026-05-04 13:53 55.86020 38.72714 27251 ft 416 kts 64°
2026-05-04 13:53 55.87262 38.77424 27389 ft 424 kts 62°
2026-05-04 13:54 55.89831 38.87015 27657 ft 440 kts 62°
2026-05-04 13:54 55.91154 38.91974 27807 ft 447 kts 62°
2026-05-04 13:54 55.93834 39.02119 28330 ft 455 kts 62°
2026-05-04 13:55 55.95164 39.07258 28654 ft 458 kts 65°
2026-05-04 13:55 55.96730 39.18357 29294 ft 467 kts 82°
2026-05-04 13:55 55.97034 39.24131 29648 ft 467 kts 82°
2026-05-04 13:56 55.97340 39.29910 29963 ft 468 kts 82°
2026-05-04 13:56 55.97650 39.35711 30208 ft 470 kts 82°
2026-05-04 13:56 55.98263 39.47302 30862 ft 468 kts 82°
2026-05-04 13:57 55.98560 39.53083 31200 ft 467 kts 82°
2026-05-04 13:57 55.98853 39.58850 31530 ft 466 kts 81°
2026-05-04 13:58 56.01623 39.75109 32463 ft 454 kts 63°
2026-05-04 13:58 56.03013 39.86196 33104 ft 464 kts 84°
2026-05-04 13:58 56.03047 39.91977 33416 ft 464 kts 85°
2026-05-04 13:59 56.03091 39.97734 33761 ft 463 kts 84°
2026-05-04 13:59 56.03166 40.03476 34052 ft 462 kts 84°
2026-05-04 13:59 56.03353 40.14936 34576 ft 461 kts 84°
2026-05-04 14:00 56.03441 40.20660 34807 ft 461 kts 84°
2026-05-04 14:00 56.03591 40.32128 35248 ft 462 kts 85°
2026-05-04 14:00 56.03650 40.37871 35484 ft 463 kts 85°
2026-05-04 14:01 56.03704 40.43639 35684 ft 464 kts 85°
2026-05-04 14:01 56.03755 40.49412 35904 ft 464 kts 86°
2026-05-04 14:01 56.03858 40.60967 36335 ft 465 kts 86°
2026-05-04 14:02 56.03909 40.66742 36542 ft 465 kts 86°
2026-05-04 14:02 56.03958 40.72454 36749 ft 465 kts 86°
2026-05-04 14:02 56.04004 40.78240 36845 ft 466 kts 86°
2026-05-04 14:03 56.04087 40.89819 36849 ft 465 kts 86°
2026-05-04 14:03 56.04161 41.01392 36851 ft 465 kts 87°
2026-05-04 14:04 56.04235 41.18737 36854 ft 465 kts 87°
2026-05-04 14:04 56.04275 41.30320 36845 ft 466 kts 87°
2026-05-04 14:05 56.04310 41.47703 36870 ft 467 kts 87°
2026-05-04 14:06 56.04323 41.59321 36857 ft 467 kts 87°
2026-05-04 14:06 56.04332 41.70935 36869 ft 467 kts 87°
2026-05-04 14:07 56.04327 41.82547 36873 ft 467 kts 87°
2026-05-04 14:07 56.04309 41.94147 36877 ft 466 kts 88°
2026-05-04 14:08 56.04272 42.05754 36895 ft 467 kts 88°
2026-05-04 14:08 56.04227 42.17360 36865 ft 467 kts 87°
2026-05-04 14:09 56.04165 42.32815 36861 ft 467 kts 88°
2026-05-04 14:10 56.04058 42.50260 36880 ft 468 kts 88°
2026-05-04 14:10 56.03952 42.61900 36876 ft 468 kts 88°
2026-05-04 14:11 56.03780 42.75439 36893 ft 469 kts 89°
2026-05-04 14:11 56.03553 42.91036 36879 ft 469 kts 89°
2026-05-04 14:12 56.03377 43.02694 36902 ft 469 kts 89°
2026-05-04 14:13 56.03100 43.20186 36884 ft 469 kts 89°
2026-05-04 14:13 56.02908 43.31848 36884 ft 469 kts 86°
2026-05-04 14:14 56.03514 43.43382 36886 ft 465 kts 79°
2026-05-04 14:14 56.04698 43.60613 36887 ft 465 kts 80°
2026-05-04 14:15 56.06228 43.83629 36894 ft 466 kts 80°
2026-05-04 14:16 56.07333 44.00849 36886 ft 466 kts 80°
2026-05-04 14:17 56.08433 44.18155 36881 ft 466 kts 80°
2026-05-04 14:18 56.09499 44.35480 36888 ft 467 kts 81°
2026-05-04 14:19 56.10872 44.58627 36887 ft 468 kts 81°
2026-05-04 14:19 56.11192 44.70284 36884 ft 471 kts 89°
2026-05-04 14:20 56.10962 44.82022 36874 ft 472 kts 89°
2026-05-04 14:20 56.10721 44.93765 36880 ft 472 kts 90°
2026-05-04 14:21 56.10334 45.10758 36887 ft 472 kts 90°
2026-05-04 14:21 56.10053 45.22520 36888 ft 473 kts 90°
2026-05-04 14:22 56.09777 45.34272 36894 ft 472 kts 90°
2026-05-04 14:22 56.09490 45.46029 36890 ft 472 kts 90°
2026-05-04 14:23 56.09021 45.63654 36894 ft 472 kts 90°
2026-05-04 14:24 56.08695 45.75404 36893 ft 472 kts 90°
2026-05-04 14:24 56.08368 45.87063 36893 ft 472 kts 90°
2026-05-04 14:25 56.08028 45.98814 36892 ft 472 kts 90°
2026-05-04 14:25 56.07492 46.16430 36899 ft 473 kts 91°
2026-05-04 14:26 56.07120 46.28189 36894 ft 473 kts 91°
2026-05-04 14:26 56.06740 46.39936 36883 ft 473 kts 91°
2026-05-04 14:27 56.06092 46.51669 36884 ft 476 kts 101°
2026-05-04 14:27 56.03969 46.62910 36294 ft 481 kts 109°
2026-05-04 14:28 56.02768 46.68518 35540 ft 483 kts 109°
2026-05-04 14:28 56.01568 46.74116 34768 ft 484 kts 108°
2026-05-04 14:28 56.00361 46.79757 33911 ft 488 kts 107°
2026-05-04 14:28 55.99141 46.85450 32907 ft 491 kts 107°
2026-05-04 14:29 55.96680 46.96866 31030 ft 495 kts 106°
2026-05-04 14:29 55.94219 47.08161 29926 ft 484 kts 105°
2026-05-04 14:30 55.92995 47.13738 29260 ft 480 kts 105°
2026-05-04 14:30 55.91785 47.19242 28705 ft 474 kts 106°
2026-05-04 14:30 55.89409 47.30066 27551 ft 463 kts 107°
2026-05-04 14:31 55.88258 47.35302 26993 ft 458 kts 107°
2026-05-04 14:31 55.85950 47.45726 25882 ft 448 kts 108°
2026-05-04 14:32 55.83678 47.55935 24806 ft 439 kts 109°
2026-05-04 14:32 55.82559 47.60952 24320 ft 434 kts 109°
2026-05-04 14:32 55.81449 47.65912 23817 ft 430 kts 109°
2026-05-04 14:32 55.80346 47.70828 23300 ft 426 kts 110°
2026-05-04 14:33 55.79251 47.75690 22794 ft 421 kts 110°
2026-05-04 14:33 55.78172 47.80473 22331 ft 415 kts 110°
2026-05-04 14:33 55.77104 47.85196 21882 ft 409 kts 110°
2026-05-04 14:33 55.76052 47.89843 21434 ft 403 kts 109°
2026-05-04 14:34 55.75015 47.94426 20974 ft 397 kts 109°
2026-05-04 14:34 55.73992 47.98933 20541 ft 392 kts 109°
2026-05-04 14:34 55.72982 48.03382 20095 ft 387 kts 109°
2026-05-04 14:34 55.71982 48.07778 19653 ft 382 kts 109°
2026-05-04 14:35 55.70986 48.12138 19202 ft 379 kts 110°
2026-05-04 14:35 55.69998 48.16453 18740 ft 376 kts 110°
2026-05-04 14:35 55.69016 48.20737 18285 ft 374 kts 110°
2026-05-04 14:35 55.68039 48.24980 17773 ft 371 kts 110°
2026-05-04 14:36 55.67069 48.29186 17313 ft 367 kts 110°
2026-05-04 14:36 55.66109 48.33343 16840 ft 364 kts 110°
2026-05-04 14:36 55.65152 48.37470 16377 ft 360 kts 110°
2026-05-04 14:36 55.64199 48.41560 15904 ft 358 kts 110°
2026-05-04 14:37 55.63255 48.45609 15441 ft 355 kts 110°
2026-05-04 14:37 55.62246 48.49576 14972 ft 353 kts 117°
2026-05-04 14:37 55.61014 48.53317 14522 ft 350 kts 119°
2026-05-04 14:37 55.59785 48.57012 14061 ft 347 kts 119°
2026-05-04 14:38 55.58567 48.60677 13591 ft 344 kts 119°
2026-05-04 14:38 55.57357 48.64313 13104 ft 341 kts 119°
2026-05-04 14:38 55.56160 48.67905 12654 ft 338 kts 119°
2026-05-04 14:38 55.54970 48.71467 12205 ft 335 kts 120°
2026-05-04 14:39 55.53789 48.74992 11755 ft 333 kts 120°
2026-05-04 14:39 55.52612 48.78490 11310 ft 331 kts 120°
2026-05-04 14:39 55.51441 48.81961 10870 ft 328 kts 120°
2026-05-04 14:40 55.49134 48.88786 10247 ft 315 kts 120°
2026-05-04 14:40 55.48038 48.92027 9952 ft 309 kts 120°
2026-05-04 14:40 55.46944 48.95259 9770 ft 306 kts 120°
2026-05-04 14:40 55.45855 48.98475 9636 ft 306 kts 120°
2026-05-04 14:41 55.44770 49.01689 9502 ft 305 kts 120°
2026-05-04 14:41 55.43684 49.04901 9234 ft 305 kts 120°
2026-05-04 14:41 55.41527 49.11256 8439 ft 300 kts 121°
2026-05-04 14:42 55.39392 49.17520 7650 ft 297 kts 121°
2026-05-04 14:42 55.38328 49.20623 7253 ft 295 kts 121°
2026-05-04 14:42 55.37271 49.23703 6874 ft 294 kts 121°
2026-05-04 14:43 55.36221 49.26773 6476 ft 292 kts 120°
2026-05-04 14:43 55.35524 49.30081 6080 ft 289 kts 96°
2026-05-04 14:43 55.35676 49.33515 5847 ft 275 kts 70°
2026-05-04 14:43 55.36505 49.36344 5575 ft 251 kts 47°
2026-05-04 14:44 55.37773 49.38333 5139 ft 243 kts 32°
2026-05-04 14:44 55.39128 49.40068 4777 ft 236 kts 33°
2026-05-04 14:44 55.40431 49.41764 4452 ft 233 kts 33°
2026-05-04 14:44 55.41734 49.43461 4119 ft 232 kts 33°
2026-05-04 14:45 55.43032 49.45128 3865 ft 227 kts 32°
2026-05-04 14:45 55.44300 49.46677 3655 ft 218 kts 31°
2026-05-04 14:45 55.45530 49.48149 3454 ft 211 kts 31°
2026-05-04 14:45 55.46718 49.49564 3267 ft 200 kts 31°
2026-05-04 14:46 55.47832 49.50893 3081 ft 189 kts 30°
2026-05-04 14:46 55.48900 49.52120 2903 ft 179 kts 22°
2026-05-04 14:46 55.50049 49.52516 2756 ft 162 kts 352°
2026-05-04 14:46 55.51059 49.51924 2610 ft 148 kts 324°
2026-05-04 14:47 55.51762 49.50682 2505 ft 141 kts 301°
2026-05-04 14:47 55.52313 49.49252 2404 ft 141 kts 303°
2026-05-04 14:47 55.52861 49.47827 2308 ft 140 kts 302°
2026-05-04 14:48 55.53542 49.46065 2173 ft 140 kts 302°
2026-05-04 14:48 55.54092 49.44651 2074 ft 139 kts 302°
2026-05-04 14:48 55.54643 49.43236 1969 ft 140 kts 302°
2026-05-04 14:48 55.55192 49.41829 1908 ft 140 kts 302°
2026-05-04 14:49 55.55746 49.40410 1795 ft 141 kts 303°
2026-05-04 14:49 55.56306 49.38975 1637 ft 141 kts 302°
2026-05-04 14:49 55.56846 49.37590 1463 ft 142 kts 302°
2026-05-04 14:49 55.57404 49.36160 1275 ft 142 kts 302°
2026-05-04 14:50 55.57962 49.34726 1091 ft 142 kts 303°
2026-05-04 14:50 55.58522 49.33282 896 ft 142 kts 304°
2026-05-04 14:50 55.59087 49.31831 713 ft 143 kts 303°
2026-05-04 14:50 55.59645 49.30404 513 ft 141 kts 303°
2026-05-04 14:51 55.60181 49.29010 418 ft 126 kts 304°
2026-05-04 14:51 55.60591 49.27958 416 ft 81 kts 304°
2026-05-04 14:51 55.60814 49.27381 412 ft 37 kts 304°
2026-05-04 14:51 55.60944 49.27039 413 ft 30 kts 305°
2026-05-04 14:52 55.61051 49.26784 411 ft 20 kts 324°
2026-05-04 14:52 55.61144 49.26836 414 ft 15 kts 34°
2026-05-04 14:52 55.61223 49.26967 411 ft 15 kts 88°
2026-05-04 14:52 55.61171 49.27124 412 ft 16 kts 123°
2026-05-04 14:53 55.61096 49.27316 412 ft 23 kts 124°
2026-05-04 14:53 55.60999 49.27564 412 ft 25 kts 124°
2026-05-04 14:53 55.60897 49.27829 410 ft 27 kts 124°
2026-05-04 14:53 55.60789 49.28108 412 ft 28 kts 124°
2026-05-04 14:54 55.60675 49.28402 415 ft 30 kts 124°
2026-05-04 14:54 55.60590 49.28729 416 ft 30 kts 95°
2026-05-04 14:54 55.60580 49.29096 416 ft 28 kts 72°
2026-05-04 14:54 55.60721 49.29312 416 ft 27 kts 38°
2026-05-04 14:55 55.60814 49.29467 412 ft 10 kts 98°
2026-05-04 14:55 55.60772 49.29588 407 ft 13 kts 124°
2026-05-04 14:55 55.60719 49.29726 414 ft 15 kts 124°
2026-05-04 14:55 55.60658 49.29883 410 ft 16 kts 124°
2026-05-04 14:56 55.60672 49.29993 412 ft 5 kts 33°
2026-05-04 14:56 55.60694 49.30020 416 ft 2 kts 34°
2026-05-04 14:56 55.60695 49.30020 416 ft 0 kts 34°